Thiruvananthapuram Airport, India

11:16 AM IST on May 23, 2017 (GMT +0530)
Trivandrum

Weather History for VOTV - November, 2013

Change the Weather History Date:

Monday, November 11, 2013

  Actual Average Record
Temperature  
Mean Temperature 82 °F -  
Max Temperature 87 °F 84 °F 89 °F (2008)
Min Temperature 77 °F 74 °F 73 °F (2011)
Cooling Degree Days 17    
Growing Degree Days 32 (Base 50)    
Moisture  
Dew Point 75 °F    
Average Humidity 78    
Maximum Humidity 94    
Minimum Humidity 66    
Precipitation  
Precipitation 0.00 in 0.20 in - ()
Sea Level Pressure  
Sea Level Pressure 29.75 in    
Wind  
Wind Speed 2 mph ()    
Max Wind Speed 9 mph    
Max Gust Speed -    
Visibility 2.2 miles    
Events Rain , Thunderstorm    
Averages and records for this station are not official NWS values.
T = Trace of Precipitation, MM = Missing Value Source: Averaged Metar Reports

Daily Weather History Graph

Daily Weather History Graph

Search for Another Location

Airport or City:

Trip Planner

Search our weather history database for the weather conditions in past years. The results will help you decide how hot, cold, wet, or windy it might be!

Date:

Astronomy

Nov. 11, 2013 Rise Set
Actual Time 6:13 AM IST 5:58 PM IST
Civil Twilight 5:51 AM IST 6:20 PM IST
Nautical Twilight 5:26 AM IST 6:46 PM IST
Astronomical Twilight 5:00 AM IST 7:11 PM IST
Moon 1:16 PM IST (11/11) 12:41 AM IST (11/11)
Length of Visible Light 12h 29m
Length of Day
11h 45m
First Quarter, 61% of the Moon is Illuminated
Nov 11
First Quarter
Nov 17
Full
Nov 26
Last Quarter
Dec 3
New
Dec 9
First Quarter

Hourly Weather History & Observations

Time (IST) Temp. Heat Index Dew Point Humidity Pressure Visibility Wind Dir Wind Speed Gust Speed Precip Events Conditions
12:10 AM 78.8 °F - 73.4 °F 83% 29.80 in 1.9 mi Calm Calm - N/A   Haze
12:40 AM 78.8 °F - 73.4 °F 83% 29.80 in 1.9 mi Calm Calm - N/A   Haze
1:10 AM 78.8 °F - 73.4 °F 83% 29.77 in 1.9 mi NE 3.5 mph - N/A   Haze
2:10 AM 78.8 °F - 73.4 °F 83% 29.77 in 1.9 mi Calm Calm - N/A   Haze
2:40 AM 78.8 °F - 73.4 °F 83% 29.74 in 1.9 mi Calm Calm - N/A   Haze
3:10 AM 77.0 °F - 73.4 °F 89% 29.74 in 1.9 mi Calm Calm - N/A   Haze
4:10 AM 77.0 °F - 73.4 °F 89% 29.74 in 1.9 mi Calm Calm - N/A   Haze
5:10 AM 77.0 °F - 73.4 °F 89% 29.74 in 1.6 mi Calm Calm - N/A   Haze
5:40 AM 77.0 °F - 73.4 °F 89% 29.74 in 1.6 mi ENE 3.5 mph - N/A   Haze
6:10 AM 77.0 °F - 71.6 °F 83% 29.77 in 1.6 mi ENE 2.3 mph - N/A   Haze
6:40 AM 77.0 °F - 71.6 °F 83% 29.77 in 1.6 mi ESE 3.5 mph - N/A   Haze
7:10 AM 77.0 °F - 73.4 °F 89% 29.77 in 1.6 mi ENE 3.5 mph - N/A   Haze
7:40 AM 78.8 °F - 75.2 °F 89% 29.77 in 1.6 mi Calm Calm - N/A   Haze
8:10 AM 82.4 °F 89.5 °F 75.2 °F 79% 29.80 in 1.6 mi Calm Calm - N/A   Haze
9:10 AM 84.2 °F 92.3 °F 75.2 °F 74% 29.80 in 1.9 mi South 3.5 mph - N/A   Haze
10:10 AM 86.0 °F 95.1 °F 75.2 °F 70% 29.80 in 2.5 mi South 4.6 mph - N/A   Haze
10:40 AM 86.0 °F 95.1 °F 75.2 °F 70% 29.77 in 2.5 mi SSE 3.5 mph - N/A   Haze
11:10 AM 87.8 °F 97.6 °F 75.2 °F 66% 29.77 in 2.5 mi South 4.6 mph - N/A   Haze
11:40 AM 87.8 °F 99.7 °F 77.0 °F 70% 29.77 in 2.8 mi South 3.5 mph - N/A   Haze
12:10 PM 87.8 °F 99.7 °F 77.0 °F 70% 29.74 in 2.8 mi SE 5.8 mph - N/A   Haze
12:40 PM 87.8 °F 99.7 °F 77.0 °F 70% 29.74 in 2.8 mi South 3.5 mph - N/A   Haze
1:10 PM 87.8 °F 99.7 °F 77.0 °F 70% 29.71 in 2.8 mi SSE 4.6 mph - N/A   Haze
1:40 PM 87.8 °F 99.7 °F 77.0 °F 70% 29.71 in 2.8 mi SSE 6.9 mph - N/A   Haze
2:10 PM 87.8 °F 99.7 °F 77.0 °F 70% 29.68 in 2.8 mi South 9.2 mph - N/A   Haze
3:10 PM 87.8 °F 99.7 °F 77.0 °F 70% 29.68 in 3.1 mi South 5.8 mph - N/A   Haze
3:40 PM 87.8 °F 99.7 °F 77.0 °F 70% 29.68 in 3.1 mi SSW 6.9 mph - N/A   Haze
4:10 PM 87.8 °F 99.7 °F 77.0 °F 70% 29.68 in 3.1 mi South 5.8 mph - N/A   Haze
5:10 PM 86.0 °F 96.9 °F 77.0 °F 74% 29.68 in 3.1 mi SSW 4.6 mph - N/A   Haze
5:40 PM 86.0 °F 95.1 °F 75.2 °F 70% 29.71 in 2.5 mi Calm Calm - N/A   Haze
6:10 PM 86.0 °F 95.1 °F 75.2 °F 70% 29.71 in 2.5 mi Calm Calm - N/A   Haze
7:10 PM 84.2 °F 92.3 °F 75.2 °F 74% 29.74 in 2.5 mi South 3.5 mph - N/A   Haze
9:10 PM 78.8 °F - 77.0 °F 94% 29.80 in 1.2 mi West 4.6 mph - N/A Rain , Thunderstorm Thunderstorms and Rain
10:10 PM 77.0 °F - 75.2 °F 94% 29.83 in 1.2 mi Calm Calm - N/A Rain , Thunderstorm Light Thunderstorms and Rain
11:40 PM 78.8 °F - 75.2 °F 89% 29.80 in 1.6 mi SE 4.6 mph - N/A Thunderstorm Thunderstorm